GFSGL_850_spd_276.txt.gz
Wind_Speed
29 29 29 30 29 30 32 33 32 33 29 27 28 30 29 30 28 32 34 37 37 30 37 38 56 51 52 51 59 68 62 55 42 46 54 50 57 54 54 55 57 57 54
29 28 28 29 28 29 28 28 27 31 29 27 25 26 27 30 31 33 33 34 39 29 38 38 47 51 52 46 47 51 57 50 43 47 48 54 49 55 56 53 51 50 48
29 29 28 28 27 27 26 25 22 22 26 25 26 26 27 30 33 34 27 33 36 33 35 40 41 48 44 47 48 51 52 47 47 45 42 47 48 56 56 53 49 44 37
28 28 27 27 26 25 23 23 21 14 12 18 17 20 23 23 27 29 29 29 35 33 37 38 40 43 46 44 52 46 41 43 36 30 29 32 41 44 49 52 46 38 35
27 27 27 26 23 21 18 18 14 12 8 6 11 17 17 21 22 22 26 29 31 30 31 35 34 36 39 41 42 38 30 31 34 35 33 34 37 41 46 50 50 43 33
28 27 25 23 21 20 18 18 16 13 12 10 5 3 6 12 16 18 21 24 25 31 32 33 31 30 29 24 17 16 17 23 30 34 33 34 34 38 42 45 45 38 30
28 27 26 24 22 20 18 17 17 16 14 16 13 9 3 4 13 19 21 26 31 29 32 30 31 25 21 22 19 17 18 20 25 26 27 27 29 34 35 36 36 35 33
27 27 26 25 23 20 20 21 22 20 22 22 22 20 17 12 2 9 18 26 31 30 28 27 28 29 22 18 20 17 17 17 19 20 19 15 19 22 24 26 31 31 26
27 26 26 27 27 28 27 26 27 28 27 25 24 25 24 22 12 12 21 28 28 27 24 24 25 26 22 20 23 26 23 20 18 15 13 12 13 17 18 24 29 29 24
25 25 24 26 28 30 30 31 32 35 33 32 30 27 26 26 22 24 25 32 35 34 32 29 26 30 24 19 19 25 29 27 26 27 26 22 22 21 22 18 18 22 19
19 21 23 26 29 30 31 32 34 36 38 38 37 34 33 29 30 29 30 33 34 34 34 31 29 26 22 20 18 18 19 22 20 18 19 19 21 20 21 21 17 15 15
15 16 19 21 24 25 28 30 31 32 34 36 37 37 36 35 31 28 28 28 28 31 32 30 28 24 21 20 18 16 18 18 19 19 19 20 19 18 16 14 14 13 13
10 12 14 16 18 20 23 25 27 28 29 30 31 32 31 30 28 25 24 22 22 23 24 23 21 19 19 20 18 17 17 16 16 15 14 15 14 12 12 12 12 12 12
6 8 10 12 14 16 18 20 21 23 23 24 25 25 24 24 23 21 19 17 16 17 18 18 17 16 16 13 14 15 16 15 12 12 11 10 9 7 9 11 12 12 13
2 4 5 7 9 11 12 14 16 18 18 18 20 18 17 18 18 17 16 15 14 14 12 12 13 12 13 13 12 11 9 7 6 6 7 8 9 11 11 12 13 13 14
3 1 2 3 4 5 7 8 10 11 12 12 13 13 13 14 13 12 12 11 11 10 8 8 9 9 8 8 7 7 7 8 8 8 8 9 9 10 13 14 16 16 17
8 5 3 3 3 3 3 3 3 3 4 5 6 6 6 6 6 6 5 5 4 4 5 5 5 5 5 5 5 6 7 8 10 10 11 12 13 15 17 18 19 20 20
11 9 7 6 5 4 4 4 4 4 3 2 1 1 1 1 1 1 2 2 3 4 5 6 6 7 8 8 8 8 10 12 13 14 15 15 16 17 19 21 22 22 21
15 12 11 9 9 8 8 7 6 6 7 7 7 7 6 6 6 6 5 3 3 4 5 6 7 8 9 10 11 12 13 15 16 17 18 19 19 21 22 23 24 24 23
20 17 15 13 12 11 10 9 9 8 8 9 9 11 11 10 9 8 8 8 7 7 9 10 11 12 13 13 14 15 17 17 18 19 19 20 20 22 23 23 24 25 25
22 20 19 19 18 16 14 13 13 11 10 11 13 15 16 14 13 13 13 14 15 14 15 16 16 17 17 18 19 20 22 22 22 23 23 24 24 26 25 26 26 27 27
26 25 24 23 20 20 18 17 16 15 14 14 13 12 12 14 14 15 15 15 16 18 20 21 21 21 21 22 23 24 24 24 24 24 24 24 25 26 26 25 25 25 24
27 26 26 25 23 22 21 20 20 19 16 16 16 15 15 16 18 18 18 18 18 18 18 19 20 20 21 23 24 25 26 26 25 26 26 25 25 24 23 23 22 21 21
27 26 26 25 25 24 23 23 22 20 19 20 19 19 18 19 21 22 22 19 18 18 19 20 22 23 23 23 23 24 24 24 24 24 24 23 22 20 19 19 17 16 15
26 26 25 25 25 25 24 23 23 21 22 21 20 20 19 21 22 23 22 22 22 22 22 22 22 22 22 22 23 23 23 24 23 21 20 19 18 16 15 14 13 12 13
24 24 25 25 25 24 24 24 23 23 23 20 19 20 21 22 22 24 24 24 23 22 21 21 20 20 21 21 21 20 19 18 17 15 14 13 12 12 11 11 11 10 11

GFSGL_850_spd_279.txt.gz
Wind_Speed
32 33 31 30 30 30 31 32 33 35 35 33 35 36 33 31 28 27 32 32 32 38 42 42 37 35 39 54 52 53 51 46 42 35 49 52 50 53 58 57 56 59 66
32 33 31 29 29 29 29 30 30 32 32 31 31 32 32 29 29 31 31 32 36 34 40 34 33 36 39 48 50 48 50 44 44 49 42 46 47 50 52 51 55 59 62
32 32 31 29 28 28 29 28 29 29 27 25 25 27 29 30 27 28 30 30 29 32 34 39 28 36 42 44 48 44 41 44 49 46 44 43 42 40 48 50 56 56 54
31 32 30 28 27 27 26 25 26 25 23 19 18 21 22 27 26 27 32 32 30 34 36 41 26 37 41 40 44 46 38 40 46 41 37 37 40 44 49 53 52 45 40
29 30 30 28 25 24 24 23 21 21 18 15 11 13 19 22 22 23 25 30 33 31 36 37 30 32 33 40 39 44 30 43 42 39 33 34 36 44 50 50 52 44 37
25 28 29 29 27 24 22 20 17 16 15 12 9 7 5 12 22 20 20 23 26 29 30 33 30 29 28 31 40 35 29 31 36 32 31 32 36 44 48 52 52 44 36
23 26 27 27 26 24 22 19 18 18 18 16 12 9 8 6 3 13 15 16 17 21 27 26 28 31 34 33 30 23 21 22 16 15 23 30 34 37 42 48 49 49 43
21 24 25 26 26 25 24 21 19 20 19 21 20 17 16 15 7 4 9 10 16 21 23 26 27 27 26 26 26 25 22 16 14 14 18 14 19 22 33 37 43 44 37
19 22 24 25 26 28 28 28 26 26 24 23 24 23 21 18 10 7 10 15 19 19 19 20 21 23 20 21 25 26 22 19 18 15 14 13 10 14 20 25 30 34 30
17 20 21 23 25 26 28 30 32 32 33 31 29 29 26 22 16 21 24 30 31 30 27 25 22 22 19 17 20 24 28 24 21 20 18 17 16 17 15 16 21 28 26
13 15 16 19 20 23 24 27 30 33 35 37 37 38 37 33 29 28 28 31 32 32 31 29 26 23 20 19 19 21 22 23 22 22 21 21 22 20 18 19 18 18 19
9 10 12 15 16 18 20 23 25 28 31 34 36 37 38 37 34 32 31 32 30 33 33 30 27 25 24 23 23 23 23 22 22 21 21 21 20 20 21 22 22 20 18
5 6 8 10 12 14 16 19 21 22 25 27 28 30 31 32 31 30 28 26 26 29 28 26 24 23 24 25 23 24 22 21 21 21 22 21 19 18 17 16 16 15 13
2 2 3 6 9 12 14 16 17 20 21 23 24 24 24 25 25 23 23 22 22 23 23 23 21 20 19 21 22 23 21 19 17 17 18 17 16 15 14 13 13 12 12
6 3 1 2 4 6 8 10 12 14 17 18 19 18 18 21 21 19 18 18 18 18 17 18 17 17 18 19 18 18 17 16 14 13 13 12 13 12 12 12 12 12 11
9 6 3 2 1 1 3 5 7 8 10 10 11 12 13 15 14 13 13 13 13 14 12 13 13 13 13 13 12 12 11 10 11 10 9 8 8 9 10 11 12 13 13
13 10 8 6 5 3 2 2 4 4 6 7 9 10 9 9 9 10 10 9 8 9 8 10 9 10 10 10 9 9 9 9 9 8 8 8 9 11 12 12 13 14 15
15 13 12 11 9 7 5 4 3 3 3 4 5 5 6 7 7 7 6 5 5 3 3 3 4 4 5 6 6 6 5 5 5 6 7 9 12 14 16 16 17 17 18
19 15 13 13 12 11 9 8 7 6 5 5 5 5 5 5 4 4 3 4 4 4 3 3 4 5 6 6 7 8 9 10 11 13 14 16 17 19 19 19 20 21 22
22 20 18 17 15 14 12 11 9 8 8 8 8 8 9 9 9 8 8 7 7 8 8 9 10 11 11 12 12 13 14 15 16 17 18 20 21 22 22 22 23 23 23
25 23 21 20 19 17 15 13 12 13 12 11 10 12 11 9 10 10 11 12 12 12 13 15 16 17 17 17 18 19 20 20 21 22 23 23 24 25 24 24 25 25 25
26 25 24 23 21 21 19 17 16 15 15 14 11 11 12 11 11 11 11 12 13 14 16 18 19 20 20 21 22 23 23 23 23 24 25 25 25 25 25 25 25 25 24
26 26 26 25 24 23 22 21 20 18 17 15 14 13 15 15 14 13 15 16 16 16 15 14 14 15 16 17 19 21 22 22 22 24 24 24 24 24 24 24 22 21 21
26 26 26 25 24 24 23 22 20 20 19 18 18 16 16 15 15 15 16 17 15 13 15 17 17 17 18 19 19 20 21 21 22 22 23 23 23 22 21 20 19 18 16
24 24 25 24 23 23 22 21 20 19 20 20 21 20 18 17 18 19 18 18 18 19 19 17 17 17 17 18 18 18 18 19 19 19 20 20 19 18 17 16 15 14 13
21 21 22 22 21 20 20 20 21 21 22 20 19 19 19 18 19 20 20 21 21 20 18 17 16 15 16 16 17 17 17 16 15 14 14 14 14 13 12 12 11 10 10

GFSGL_850_spd_285.txt.gz
Wind_Speed
23 24 25 27 28 28 28 28 27 27 27 29 29 30 31 31 30 30 34 35 39 38 36 39 40 34 39 49 40 31 43 38 36 21 25 32 49 53 56 69 67 64 56
21 23 25 27 29 30 29 28 26 26 25 26 27 29 30 32 32 30 32 31 37 37 36 39 40 44 33 34 46 31 32 39 41 33 37 30 28 41 45 38 47 58 56
19 22 24 26 29 30 31 29 26 25 25 25 26 28 29 29 31 31 29 30 36 36 36 36 36 30 38 36 33 29 26 29 34 41 35 35 35 25 29 37 36 34 38
17 20 22 24 27 29 30 29 27 25 26 26 26 26 26 27 28 28 25 24 31 32 32 34 27 30 31 32 30 39 33 31 32 37 37 33 32 28 30 26 26 29 29
14 17 19 22 25 28 30 31 28 26 24 24 25 25 24 24 24 23 20 20 21 26 27 26 25 27 27 30 34 37 39 37 32 36 38 40 39 29 26 25 26 24 23
12 14 17 20 24 27 29 29 29 27 24 24 25 25 23 22 21 18 14 13 15 18 23 25 25 25 24 28 34 32 33 29 39 38 43 40 41 35 29 28 29 27 27
9 11 14 17 21 25 27 28 30 29 27 26 26 26 25 24 24 11 7 10 13 16 18 19 23 26 26 26 25 29 32 27 33 42 36 38 39 35 32 30 27 28 33
6 7 10 14 18 21 24 28 29 29 28 28 27 27 27 27 24 20 11 9 13 17 17 15 17 17 18 21 22 23 21 27 31 33 32 35 34 31 28 25 31 36 30
6 6 8 11 14 18 21 24 26 27 28 29 28 27 27 26 21 18 13 8 4 3 3 2 4 7 11 15 18 18 20 19 19 19 15 13 12 12 18 22 31 33 32
8 5 5 8 11 14 16 17 20 22 24 26 27 28 26 25 21 17 13 13 13 12 12 10 5 2 2 3 7 14 17 17 19 22 20 16 12 11 11 13 21 30 33
10 7 3 5 7 10 12 13 14 16 18 21 24 26 27 27 24 20 18 19 21 21 20 19 15 11 10 9 10 13 14 17 15 14 17 15 14 15 14 14 20 25 30
12 9 5 4 6 7 9 11 12 13 15 17 19 21 23 24 24 24 23 22 22 24 24 21 17 14 14 14 15 17 17 17 19 20 20 20 19 20 19 16 15 18 25
14 12 9 7 6 6 6 7 9 12 14 15 17 18 20 21 21 21 21 22 21 22 23 23 22 23 22 24 22 19 17 18 19 20 21 22 20 19 19 19 19 19 17
16 15 13 11 8 7 6 6 6 8 10 12 13 14 15 16 17 18 18 19 18 19 19 19 19 19 20 22 21 20 19 19 19 21 23 23 22 22 22 21 21 19 14
19 18 16 15 12 10 8 7 6 5 6 7 9 10 11 12 14 15 14 13 15 15 15 16 16 17 19 19 19 19 19 18 17 17 18 19 19 18 18 17 15 14 12
23 22 20 18 16 14 12 9 8 7 5 4 5 6 6 7 9 9 10 9 9 10 9 10 12 12 13 14 14 14 15 14 14 13 12 12 13 14 14 14 13 11 9
27 24 23 21 20 18 15 13 11 9 7 7 7 7 7 7 6 5 6 6 7 6 5 6 7 8 8 8 8 8 8 9 9 10 10 11 11 12 11 11 11 10 10
31 28 26 24 22 21 19 16 14 12 9 8 7 6 7 8 8 7 6 5 3 2 2 2 2 2 3 4 5 6 7 8 8 9 9 9 9 10 10 10 10 10 11
35 33 30 28 25 23 21 19 17 14 11 10 9 8 7 8 8 8 8 8 7 5 4 4 4 4 4 4 4 4 4 5 6 7 8 9 10 10 11 12 12 13 13
37 36 33 30 28 26 24 22 19 17 15 14 12 11 9 11 12 11 9 9 9 9 8 8 8 8 8 9 9 9 10 10 11 12 13 13 14 14 14 15 15 15 15
37 38 35 33 31 28 26 24 21 20 17 16 14 12 11 11 10 10 11 10 9 9 10 11 11 11 12 12 12 12 13 13 13 14 14 14 15 15 15 16 16 16 16
35 37 37 36 34 31 29 25 23 22 20 19 16 15 14 14 11 11 9 8 9 9 9 10 10 10 12 13 15 15 15 15 16 16 16 16 17 17 17 17 17 18 17
32 35 35 36 35 32 30 28 26 24 23 21 19 18 18 18 16 14 14 13 13 12 12 10 9 9 10 11 12 13 13 14 15 16 16 17 17 17 17 18 17 17 18
27 30 33 33 33 32 31 30 28 26 24 23 21 21 20 20 20 19 19 19 18 17 17 15 14 14 15 15 15 15 15 15 16 16 16 17 17 17 17 17 16 16 16
22 25 27 28 28 28 28 27 25 25 24 23 22 22 21 20 20 21 21 20 20 20 19 18 18 18 18 17 17 17 17 17 16 15 15 15 15 15 15 15 15 14 14
15 17 18 18 19 19 19 20 20 19 20 20 19 19 19 18 20 20 19 18 17 18 18 18 19 19 18 17 16 16 16 15 15 15 14 14 14 14 14 14 13 12 11

GFSGL_850_spd_291.txt.gz
Wind_Speed
10 10 10 12 15 17 20 23 26 27 26 24 22 22 21 21 20 22 22 24 26 28 28 31 31 34 37 36 32 30 31 30 39 38 38 36 25 39 38 31 28 28 30
10 9 9 11 13 15 19 22 25 26 24 22 21 20 20 21 20 20 21 23 26 28 27 29 31 30 31 32 30 34 32 33 33 33 30 40 40 34 35 35 30 30 36
9 8 7 9 10 14 17 20 24 25 23 22 22 21 19 19 19 18 20 22 24 25 26 26 25 25 27 29 29 29 32 32 34 38 40 32 36 29 34 29 19 28 32
9 7 6 8 9 13 16 19 22 24 23 22 21 20 19 20 18 19 22 22 21 20 20 19 19 20 25 28 27 28 30 32 30 37 26 34 25 27 31 40 30 13 19
10 7 6 7 8 11 14 17 20 23 22 23 23 22 19 19 22 23 22 19 16 15 15 14 14 17 21 26 24 25 29 24 24 26 22 24 21 20 24 24 28 29 27
12 7 7 7 7 11 13 15 18 20 23 24 25 26 24 23 24 23 22 20 14 14 16 17 16 15 17 20 23 24 23 23 25 17 23 25 29 23 22 20 27 20 14
13 8 9 8 6 9 12 13 15 18 20 22 24 25 26 26 25 24 23 21 17 14 13 15 16 16 16 17 18 18 18 19 23 27 27 27 30 29 23 23 28 25 23
15 10 11 9 6 7 10 11 13 16 19 21 23 24 25 25 26 26 23 21 18 15 14 14 14 13 11 12 14 16 17 19 21 25 27 26 26 24 25 22 29 24 17
16 11 13 11 8 5 9 9 10 12 15 18 20 21 22 24 26 26 25 23 21 18 15 13 14 14 11 7 10 13 16 17 17 18 20 22 21 24 24 22 26 27 20
16 12 14 13 11 6 8 9 9 11 13 15 16 17 19 21 22 23 24 25 24 22 19 17 18 18 14 11 6 6 11 12 13 14 18 22 25 28 22 19 22 30 27
16 16 15 16 13 9 8 7 7 8 10 12 13 15 17 18 19 21 22 22 23 23 24 24 22 20 16 11 7 5 7 7 8 8 9 11 14 14 15 14 18 21 22
19 17 17 17 15 13 10 9 7 6 8 9 9 11 12 13 15 16 18 20 20 21 22 22 22 20 17 14 11 9 6 4 2 5 8 11 11 11 11 11 12 14 16
22 20 19 19 18 17 14 11 10 7 7 8 8 8 9 10 11 12 14 15 17 19 21 21 20 18 18 16 16 12 9 7 5 6 9 11 11 11 11 11 13 13 10
25 25 23 22 20 20 18 15 13 11 10 8 8 7 7 7 9 10 12 13 14 15 17 17 17 17 17 18 16 16 14 12 9 10 13 14 14 14 12 10 13 14 12
30 29 28 26 24 23 21 19 16 14 12 10 9 8 8 7 7 8 9 10 11 11 13 13 12 13 14 15 15 16 16 15 14 15 14 15 16 15 16 15 13 10 9
33 34 33 31 28 26 24 22 20 17 14 12 11 11 10 8 7 7 8 9 9 9 8 8 8 9 10 11 12 12 12 12 13 12 12 13 14 14 15 13 11 10 13
31 34 36 35 33 30 28 26 23 19 17 15 13 12 11 10 9 8 8 8 8 8 7 7 7 6 5 6 6 7 7 7 8 8 8 8 7 7 7 7 8 8 9
29 32 35 37 36 34 31 28 24 23 20 16 15 14 12 11 9 9 9 9 9 8 8 7 6 6 5 5 4 3 3 3 3 3 2 2 2 3 3 4 4 4 6
28 31 33 35 37 36 33 30 28 25 22 19 17 16 13 12 10 9 10 11 12 11 9 8 8 8 7 7 6 6 5 4 4 3 3 3 3 4 4 4 3 4 4
25 27 29 32 34 36 35 33 31 29 25 21 19 15 16 14 11 10 10 10 10 10 12 13 12 11 10 9 9 9 8 8 8 8 7 7 7 7 7 8 7 7 7
20 22 25 28 30 32 35 35 33 30 26 23 19 15 17 15 13 12 11 10 9 9 9 9 9 10 11 12 12 13 12 11 11 10 10 11 11 11 11 12 12 12 12
17 18 20 23 26 28 32 34 33 30 27 24 20 19 18 18 17 16 15 13 12 11 9 9 9 9 9 9 10 11 12 13 14 15 16 16 16 15 15 15 15 15 14
14 15 14 15 18 21 25 28 30 29 26 23 20 19 19 19 17 16 16 16 16 15 12 13 13 12 11 11 10 11 11 13 14 15 15 16 18 18 18 19 19 19 18
8 8 8 9 10 12 14 19 22 25 24 22 20 19 18 18 18 18 19 20 18 17 17 17 17 17 17 16 15 15 15 14 15 16 17 17 17 18 18 18 18 18 18
2 2 3 4 4 6 8 10 12 15 17 17 17 17 17 18 19 19 18 18 17 17 18 19 19 19 18 17 17 16 16 15 15 15 15 16 16 16 17 17 16 15 15
6 4 2 1 1 2 3 4 7 10 12 13 14 14 15 15 15 14 14 15 16 18 18 17 16 15 15 15 15 15 15 14 14 13 14 14 14 15 14 14 14 14 14